Flag for Costa Rica Weather past 2 weeks in San Jose, Costa Rica

Now
68 °F

Passing clouds.


Feels Like: 68 °F
Forecast: 65 / 78 °F
Wind: 9 mph from Northeast

Location: Juan Santamaria

Current Time: Mar 31, 2015 at 3:28:31 AM

Latest Report: Mar 31, 2015 at 3:00 AM


Visibility: N/A

Pressure: N/A

Humidity: 78%

Dew point: 61 °F

Location of San JoseLocation

Historic Weather in San Jose — Graph

°F

San Jose temperature yesterday

Maximum temperature yesterday: 84 °F (at 1:00 PM)
Minimum temperature yesterday: 68 °F (at 2:00 AM)
Average temperature yesterday: 73 °F

Past Weeks' High & Low Weather Summary

 TemperatureHumidityPressure
High88 °F (Mar 26, 2:00 PM)83% (Mar 27, 9:00 PM)30.15 "Hg (Mar 27, 9:00 PM)
Low59 °F (Mar 27, 4:00 AM)24% (Mar 27, 11:00 AM)29.95 "Hg (Mar 16, 2:00 AM)
Average74 °F55%30.06 "Hg
* Reported Mar 16 2:00 AM — Mar 31 2:00 AM, San Jose, Weather by CustomWeather, © 2015

Note: Actual official high and low records may vary slightly from our data, if they occured in-between our weather recording intervals... More about our weather records

Advertising

San Jose weather history for previous 24 hours

 ConditionsComfort  
Time TempWeatherWind HumidityBarometerVisibility
2:00 AM
Tue, Mar 31
68 °FPassing clouds.7 mph78%30.02 "HgN/A
1:00 AM70 °FPassing clouds.13 mph69%30.04 "HgN/A
12:00 AM70 °FPassing clouds.12 mph69%30.06 "HgN/A
11:00 PM
Mon, Mar 30
70 °FPassing clouds.12 mph69%30.07 "HgN/A
10:00 PM70 °FPassing clouds.12 mph69%30.09 "HgN/A
9:00 PM70 °FPassing clouds.13 mph69%30.07 "HgN/A
8:00 PM72 °FPassing clouds.12 mph69%30.07 "HgN/A
7:00 PM72 °FPassing clouds.12 mph69%30.05 "HgN/A
6:00 PM73 °FPassing clouds.9 mph65%30.03 "HgN/A
5:00 PM77 °FPartly sunny.12 mph57%30.01 "HgN/A
4:00 PM77 °FBroken clouds.12 mph57%30.01 "HgN/A
3:00 PM79 °FPartly sunny.14 mph51%30.01 "HgN/A
2:00 PM81 °FPartly sunny.13 mph48%30.02 "HgN/A
1:00 PM84 °FPartly sunny.12 mph43%30.04 "HgN/A
12:00 PM81 °FPartly sunny.15 mph45%30.08 "HgN/A
11:00 AM79 °FPartly sunny.16 mph48%30.10 "HgN/A
10:00 AM77 °FOvercast.15 mph51%30.11 "HgN/A
9:00 AM75 °FOvercast.12 mph54%30.12 "HgN/A
8:00 AM73 °FOvercast.13 mph57%30.11 "HgN/A
7:00 AM72 °FSunny.7 mph61%30.09 "Hg10 mi
6:00 AM68 °FSunny.9 mph73%30.08 "Hg10 mi
5:00 AM68 °FClear.14 mph73%30.07 "Hg10 mi
4:00 AM68 °FClear.10 mph73%30.06 "Hg10 mi
3:00 AM68 °FPassing clouds.12 mph73%30.07 "HgN/A
Weather by CustomWeather, © 2015

See weather overviewHow to use our weather pages